GW0552 Weather Reports


time (UTC)temp
C
wind
direction
speed
KPH
gust
KPH
rain 1hr
cm
rain 24hr
cm
rain mn
cm
humidity
%
barometer
mb
20260901150155 30 118 1.6 1.6 0.00 0.00 0.00 78 1016.1
20260901145654 30 119 0.0 0.0 0.00 0.00 0.00 82 1016.2
20260901145154 30 130 1.6 3.2 0.00 0.00 0.00 80 1016.1
20260901144649 30 126 0.0 0.0 0.00 0.00 0.00 82 1016.1
20260901144144 29 122 0.0 0.0 0.00 0.00 0.00 81 1016.2
20260901143639 29 107 0.0 0.0 0.00 0.00 0.00 83 1016.4
20260901143136 29 104 1.6 3.2 0.00 0.00 0.00 85 1016.3
20260901142632 28 122 0.0 0.0 0.00 0.00 0.00 90 1016.2
20260901142131 28 117 0.0 1.6 0.00 0.00 0.00 89 1016.2
20260901141626 28 110 0.0 0.0 0.00 0.00 0.00 91 1016.3
20260901141120 28 114 1.6 1.6 0.00 0.00 0.00 90 1016.1
20260901140619 27 114 4.8 4.8 0.00 0.00 0.00 86 1016.2
20260901140118 27 119 6.4 9.7 0.00 0.00 0.00 87 1016.1
20260901135618 27 109 0.0 0.0 0.00 0.00 0.00 95 1016.2
20260901135113 26 117 1.6 1.6 0.00 0.00 0.00 96 1016.2
20260901134610 26 112 1.6 1.6 0.00 0.00 0.00 96 1016.3
20260901134104 26 110 1.6 3.2 0.00 0.00 0.00 97 1016.2
20260901133603 25 112 1.6 1.6 0.00 0.00 0.00 97 1016.1
20260901133102 25 97 1.6 3.2 0.00 0.00 0.00 99 1016.1
20260901132556 25 117 0.0 0.0 0.00 0.00 0.00 99 1016.3
20260901132051 25 115 0.0 0.0 0.00 0.00 0.00 99 1016.3
20260901131551 24 115 0.0 0.0 0.00 0.00 0.00 99 1016.3
20260901131045 23 114 0.0 0.0 0.00 0.00 0.00 99 1016.2
20260901130540 23 114 0.0 0.0 0.00 0.00 0.00 99 1016.3
20260901130039 23 116 0.0 0.0 0.00 0.00 0.00 99 1016.2
20260901125537 22 117 0.0 0.0 0.00 0.00 0.00 99 1016.1
20260901125033 22 121 0.0 0.0 0.00 0.00 0.00 99 1016.1
20260901124532 22 123 0.0 0.0 0.00 0.00 0.00 99 1016.4
20260901124027 22 122 0.0 0.0 0.00 0.00 0.00 99 1016.4
20260901123522 22 122 0.0 0.0 0.00 0.00 0.00 99 1016.3
20260901123021 21 123 0.0 0.0 0.00 0.00 0.00 99 1016.2
20260901122520 21 124 0.0 0.0 0.00 0.00 0.00 99 1016.5
20260901122014 21 124 0.0 0.0 0.00 0.00 0.00 99 1016.6
20260901121509 21 123 0.0 0.0 0.00 0.00 0.00 99 1016.1
20260901121004 21 122 0.0 0.0 0.00 0.00 0.00 99 1016.4
20260901120504 21 123 0.0 0.0 0.00 0.00 0.00 99 1016.3
20260901115959 21 122 0.0 0.0 0.00 0.00 0.00 99 1016.2
20260901115454 21 124 0.0 0.0 0.00 0.00 0.00 99 1016.2
20260901114952 20 122 0.0 0.0 0.00 0.00 0.00 99 1016.3
20260901114447 20 122 0.0 0.0 0.00 0.00 0.00 99 1016.1
20260901113945 20 122 0.0 0.0 0.00 0.00 0.00 99 1015.9
20260901113444 20 121 0.0 0.0 0.00 0.00 0.00 99 1015.9
20260901112939 20 122 0.0 0.0 0.00 0.00 0.00 99 1015.9
20260901112435 20 122 0.0 0.0 0.00 0.00 0.00 99 1016.0
20260901111924 20 122 0.0 0.0 0.00 0.00 0.00 99 1015.9
20260901111422 20 122 0.0 0.0 0.00 0.00 0.00 99 1015.7
20260901110921 20 123 0.0 0.0 0.00 0.00 0.00 99 1015.8
20260901110417 20 120 0.0 0.0 0.00 0.00 0.00 99 1015.3
20260901105913 20 123 0.0 0.0 0.00 0.00 0.00 99 1015.3
20260901105408 20 122 0.0 0.0 0.00 0.00 0.00 99 1015.5
20260901104904 20 122 0.0 0.0 0.00 0.00 0.00 99 1015.4
20260901104359 20 123 0.0 0.0 0.00 0.00 0.00 99 1015.4
20260901103854 21 121 0.0 0.0 0.00 0.00 0.00 99 1015.3
20260901103348 21 121 0.0 0.0 0.00 0.00 0.00 99 1015.3
20260901102843 20 121 0.0 0.0 0.00 0.00 0.00 99 1015.2
20260901102338 21 125 0.0 0.0 0.00 0.00 0.00 99 1015.2
20260901101834 21 124 0.0 0.0 0.00 0.00 0.00 99 1015.2
20260901101333 21 123 0.0 0.0 0.00 0.00 0.00 99 1015.1
20260901100833 21 123 0.0 0.0 0.00 0.00 0.00 99 1015.3
20260901100327 21 123 0.0 0.0 0.00 0.00 0.00 99 1015.2
20260901095827 21 123 0.0 0.0 0.00 0.00 0.00 99 1015.1
20260901095324 21 122 0.0 0.0 0.00 0.00 0.00 99 1015.0
20260901094818 21 121 0.0 0.0 0.00 0.00 0.00 99 1014.9
20260901094144 21 123 0.0 0.0 0.00 0.00 0.00 99 1015.1
20260901093639 21 123 0.0 0.0 0.00 0.00 0.00 99 1015.1
20260901093138 21 123 0.0 0.0 0.00 0.00 0.00 99 1015.1
20260901092634 21 122 0.0 0.0 0.00 0.00 0.00 99 1014.9
20260901092130 21 123 0.0 0.0 0.00 0.00 0.00 99 1014.9
20260901091626 21 122 0.0 0.0 0.00 0.00 0.00 99 1014.7
20260901091120 21 123 0.0 0.0 0.00 0.00 0.00 99 1014.9
20260901090359 21 124 0.0 0.0 0.00 0.00 0.00 99 1014.6
20260901085856 21 124 0.0 0.0 0.00 0.00 0.00 99 1014.6
20260901085351 21 122 0.0 0.0 0.00 0.00 0.00 99 1014.7
20260901084848 21 123 0.0 0.0 0.00 0.00 0.00 99 1014.6
20260901084343 21 120 0.0 0.0 0.00 0.00 0.00 99 1014.5
20260901083839 21 117 0.0 0.0 0.00 0.00 0.00 99 1014.6
20260901083338 21 120 0.0 0.0 0.00 0.00 0.00 99 1014.6
20260901082836 21 124 0.0 0.0 0.00 0.00 0.00 99 1014.6
20260901082332 21 125 0.0 0.0 0.00 0.00 0.00 99 1014.4
20260901081827 21 121 0.0 0.0 0.00 0.00 0.00 99 1014.6
20260901081322 21 122 0.0 0.0 0.00 0.00 0.00 99 1014.6
20260901080816 21 122 0.0 0.0 0.00 0.00 0.00 99 1014.5
20260901080316 21 122 0.0 0.0 0.00 0.00 0.00 99 1014.5
20260901075810 21 123 0.0 0.0 0.00 0.00 0.00 99 1014.4
20260901075307 21 119 0.0 0.0 0.00 0.00 0.00 99 1014.7
20260901074800 21 122 0.0 0.0 0.00 0.00 0.00 99 1014.5
20260901074255 21 123 0.0 0.0 0.00 0.00 0.00 99 1014.4
20260901073751 21 123 0.0 0.0 0.00 0.00 0.00 99 1014.6
20260901073246 21 122 0.0 0.0 0.00 0.00 0.00 99 1014.7
20260901072741 21 122 0.0 0.0 0.00 0.00 0.00 99 1014.6
20260901072236 21 122 0.0 0.0 0.00 0.00 0.00 99 1014.6
20260901071730 21 123 0.0 0.0 0.00 0.00 0.00 99 1014.6
20260901071225 21 122 0.0 0.0 0.00 0.00 0.00 99 1014.2
20260901070724 21 122 0.0 0.0 0.00 0.00 0.00 99 1014.2
20260901070219 21 122 0.0 0.0 0.00 0.00 0.00 99 1014.2
20260901065631 21 121 0.0 0.0 0.00 0.00 0.00 99 1014.5
20260901065126 21 121 0.0 0.0 0.00 0.00 0.00 99 1014.5
20260901064624 22 121 0.0 0.0 0.00 0.00 0.00 99 1014.3
20260901064120 22 117 0.0 0.0 0.00 0.00 0.00 99 1014.3
20260901063616 22 118 0.0 0.0 0.00 0.00 0.00 99 1014.1
20260901063112 22 120 0.0 0.0 0.00 0.00 0.00 99 1014.3
20260901062608 22 123 0.0 0.0 0.00 0.00 0.00 99 1014.4
20260901062103 22 121 0.0 0.0 0.00 0.00 0.00 99 1014.2
20260901061600 22 123 0.0 0.0 0.00 0.00 0.00 99 1014.2
20260901061054 22 120 0.0 0.0 0.00 0.00 0.00 99 1014.3
20260901060549 22 124 0.0 0.0 0.00 0.00 0.00 99 1014.4
20260901060044 22 122 0.0 0.0 0.00 0.00 0.00 99 1014.5
20260901055539 22 119 0.0 0.0 0.00 0.00 0.00 99 1014.6
20260901055036 22 122 0.0 0.0 0.00 0.00 0.00 99 1014.6
20260901054533 22 126 0.0 0.0 0.00 0.00 0.00 99 1014.6
20260901054028 22 122 0.0 0.0 0.00 0.00 0.00 99 1014.4
20260901053525 22 120 0.0 0.0 0.00 0.00 0.00 99 1014.6
20260901053020 22 124 0.0 0.0 0.00 0.00 0.00 99 1014.7
20260901052515 22 124 0.0 0.0 0.00 0.00 0.00 99 1014.9
20260901052014 22 123 0.0 0.0 0.00 0.00 0.00 99 1014.8
20260901051509 22 122 0.0 0.0 0.00 0.00 0.00 99 1014.9
20260901051008 22 122 0.0 0.0 0.00 0.00 0.00 99 1014.9
20260901050504 22 122 0.0 0.0 0.00 0.00 0.00 99 1014.9
20260901045958 22 119 0.0 0.0 0.00 0.00 0.00 99 1014.7
20260901045454 22 120 0.0 0.0 0.00 0.00 0.00 99 1014.8
20260901044948 22 120 0.0 0.0 0.00 0.00 0.00 99 1014.9
20260901044444 22 120 0.0 0.0 0.00 0.00 0.00 99 1014.9
20260901043940 22 122 0.0 0.0 0.00 0.00 0.00 99 1015.0
20260901043436 22 122 0.0 0.0 0.00 0.00 0.00 99 1014.9
20260901042936 23 125 0.0 0.0 0.00 0.00 0.00 99 1014.8
20260901042436 23 123 0.0 0.0 0.00 0.00 0.00 99 1014.9
20260901041931 23 124 0.0 0.0 0.00 0.00 0.00 99 1015.0
20260901041426 23 124 0.0 0.0 0.00 0.00 0.00 99 1015.1
20260901040925 23 122 0.0 0.0 0.00 0.00 0.00 99 1015.2
20260901040420 23 124 0.0 0.0 0.00 0.00 0.00 99 1015.1
20260901035919 23 124 0.0 0.0 0.00 0.00 0.00 99 1015.0
20260901035418 23 124 0.0 0.0 0.00 0.00 0.00 99 1015.1
20260901034916 23 127 0.0 0.0 0.00 0.00 0.00 99 1015.1
20260901034023 23 122 0.0 0.0 0.00 0.00 0.00 99 1015.2
20260901033521 23 122 0.0 0.0 0.00 0.00 0.00 99 1015.2
20260901033021 23 122 0.0 0.0 0.00 0.00 0.00 99 1015.2
20260901032515 23 127 1.6 1.6 0.00 0.00 0.00 99 1014.9
20260901032015 23 128 1.6 1.6 0.00 0.00 0.00 99 1015.2
20260901031511 23 130 1.6 3.2 0.00 0.00 0.00 99 1015.2
20260901031006 24 125 0.0 0.0 0.00 0.00 0.00 99 1015.4
20260901030501 24 120 0.0 0.0 0.00 0.00 0.00 99 1015.3
20260901030000 24 125 0.0 0.0 0.00 0.00 0.00 99 1015.1
20260901025455 24 126 0.0 0.0 0.00 0.00 0.00 99 1015.1
20260901024954 24 125 0.0 0.0 0.00 0.00 0.00 99 1015.0
20260901024450 24 126 1.6 1.6 0.00 0.00 0.00 99 1015.4
20260901023948 24 125 0.0 0.0 0.00 0.00 0.00 99 1015.1
20260901023443 25 124 0.0 0.0 0.00 0.00 0.00 99 1015.2
20260901022938 25 125 1.6 1.6 0.00 0.00 0.00 99 1015.2
20260901022434 25 123 0.0 1.6 0.00 0.00 0.00 99 1015.4
20260901021928 25 125 0.0 0.0 0.00 0.00 0.00 99 1015.3
20260901021424 25 124 0.0 0.0 0.00 0.00 0.00 99 1015.2
20260901020919 25 124 0.0 0.0 0.00 0.00 0.00 99 1015.1
20260901020415 25 122 0.0 0.0 0.00 0.00 0.00 99 1015.2
20260901015913 25 122 0.0 0.0 0.00 0.00 0.00 99 1015.0
20260901015410 25 123 0.0 0.0 0.00 0.00 0.00 99 1015.1
20260901014909 25 123 0.0 0.0 0.00 0.00 0.00 99 1015.0
20260901014406 25 124 0.0 0.0 0.00 0.00 0.00 99 1015.2
20260901013901 25 125 0.0 0.0 0.00 0.00 0.00 99 1014.9
20260901013356 25 126 0.0 0.0 0.00 0.00 0.00 99 1014.8
20260901012852 25 124 0.0 0.0 0.00 0.00 0.00 99 1014.9
20260901012347 25 123 0.0 0.0 0.00 0.00 0.00 98 1014.6
20260901011842 25 124 1.6 1.6 0.00 0.00 0.00 98 1014.8
20260901011338 25 126 0.0 0.0 0.00 0.00 0.00 98 1014.7
20260901010831 25 125 0.0 1.6 0.00 0.00 0.00 98 1014.5
20260901010326 25 124 0.0 0.0 0.00 0.00 0.00 97 1014.6
20260901005825 25 123 0.0 0.0 0.00 0.00 0.00 96 1014.4
20260901005320 25 123 0.0 0.0 0.00 0.00 0.00 96 1014.4
20260901004820 26 124 0.0 0.0 0.00 0.00 0.00 96 1014.4
20260901004314 26 124 0.0 0.0 0.00 0.00 0.00 96 1014.5
20260901003814 26 124 0.0 0.0 0.00 0.00 0.00 96 1014.1
20260901003309 26 125 0.0 0.0 0.00 0.00 0.00 96 1014.1
20260901002803 26 126 0.0 0.0 0.00 0.00 0.00 96 1014.1
20260901002258 26 125 0.0 0.0 0.00 0.00 0.00 95 1013.8
20260901001752 26 125 0.0 0.0 0.00 0.00 0.00 95 1013.8
20260901001248 26 126 0.0 0.0 0.00 0.00 0.00 95 1013.6
20260901000743 26 127 0.0 0.0 0.00 0.00 0.00 95 1013.7
20260901000241 26 126 0.0 0.0 0.00 0.00 0.00 94 1013.9
20260831235737 27 127 0.0 0.0 0.00 0.00 0.00 94 1013.8
20260831235233 27 126 0.0 0.0 0.00 0.00 0.00 93 1013.9
20260831234733 27 126 0.0 1.6 0.00 0.00 0.00 93 1014.0
20260831234233 27 126 0.0 1.6 0.00 0.00 0.00 93 1013.8
20260831233728 27 127 0.0 0.0 0.00 0.00 0.00 92 1013.8
20260831233224 27 126 0.0 0.0 0.00 0.00 0.00 91 1013.9
20260831232723 27 127 1.6 1.6 0.00 0.00 0.00 91 1013.9
20260831232220 27 126 0.0 0.0 0.00 0.00 0.00 90 1013.8
20260831231716 28 124 0.0 1.6 0.00 0.00 0.00 90 1014.0
20260831231212 28 127 1.6 1.6 0.00 0.00 0.00 89 1013.9
20260831230712 28 126 1.6 3.2 0.00 0.00 0.00 88 1014.0
20260831230207 28 124 1.6 1.6 0.00 0.00 0.00 87 1013.8
20260831225706 28 131 1.6 1.6 0.00 0.00 0.00 88 1013.8
20260831225201 28 132 1.6 1.6 0.00 0.00 0.00 87 1014.1
20260831224656 28 128 1.6 1.6 0.00 0.00 0.00 87 1014.1
20260831224152 28 130 1.6 3.2 0.00 0.00 0.00 87 1014.2
20260831223647 28 128 1.6 1.6 0.00 0.00 0.00 86 1014.1
20260831223144 28 127 0.0 0.0 0.00 0.00 0.00 84 1014.2
20260831222639 28 128 0.0 0.0 0.00 0.00 0.00 83 1014.3
20260831222135 29 127 0.0 0.0 0.00 0.00 0.00 82 1014.1
20260831221630 30 127 0.0 0.0 0.00 0.00 0.00 81 1014.3
20260831221125 30 127 1.6 1.6 0.00 0.00 0.00 78 1014.1
20260831220620 31 127 1.6 1.6 0.00 0.00 0.00 76 1014.2
20260831220115 31 127 1.6 1.6 0.00 0.00 0.00 75 1014.5
20260831215611 31 128 1.6 3.2 0.00 0.00 0.00 70 1014.4
20260831215106 31 131 1.6 1.6 0.00 0.00 0.00 72 1014.5
20260831214604 31 129 0.0 0.0 0.00 0.00 0.00 70 1014.5
20260831214100 32 128 3.2 3.2 0.00 0.00 0.00 68 1014.6
20260831213556 32 135 4.8 4.8 0.00 0.00 0.00 68 1014.7
20260831213051 32 136 1.6 1.6 0.00 0.00 0.00 70 1014.6
20260831212547 31 124 3.2 3.2 0.00 0.00 0.00 70 1014.8
20260831212043 31 125 1.6 1.6 0.00 0.00 0.00 69 1014.8
20260831211537 31 124 6.4 9.7 0.00 0.00 0.00 69 1014.6
20260831211036 31 130 1.6 1.6 0.00 0.00 0.00 73 1014.8
20260831210531 31 138 4.8 4.8 0.00 0.00 0.00 74 1014.7
20260831210027 31 127 8.0 8.0 0.00 0.00 0.00 71 1014.8
20260831205522 31 141 6.4 8.0 0.00 0.00 0.00 73 1014.6
20260831205018 31 127 4.8 4.8 0.00 0.00 0.00 69 1014.9
20260831204518 31 124 1.6 1.6 0.00 0.00 0.00 72 1014.7
20260831204016 31 134 4.8 4.8 0.00 0.00 0.00 73 1014.6
20260831203511 31 125 1.6 3.2 0.00 0.00 0.00 76 1015.1
20260831203009 32 138 0.0 0.0 0.00 0.00 0.00 75 1015.1
20260831202504 32 129 0.0 0.0 0.00 0.00 0.00 70 1015.0
20260831202003 32 122 0.0 0.0 0.00 0.00 0.00 68 1015.1
20260831201502 32 129 1.6 1.6 0.00 0.00 0.00 64 1015.1
20260831200958 32 109 3.2 3.2 0.00 0.00 0.00 64 1015.1
20260831200453 32 137 3.2 3.2 0.00 0.00 0.00 64 1014.9
20260831195948 32 109 0.0 0.0 0.00 0.00 0.00 70 1014.9
20260831195444 32 124 0.0 0.0 0.00 0.00 0.00 69 1015.2
20260831194938 31 133 0.0 1.6 0.00 0.00 0.00 67 1015.2
20260831194434 32 139 1.6 3.2 0.00 0.00 0.00 70 1015.3
20260831193933 31 162 4.8 4.8 0.00 0.00 0.00 69 1015.2
20260831193429 32 112 1.6 1.6 0.00 0.00 0.00 67 1015.5
20260831192924 32 103 3.2 4.8 0.00 0.00 0.00 64 1015.4
20260831192419 33 122 0.0 0.0 0.00 0.00 0.00 62 1015.5
20260831191914 33 122 1.6 1.6 0.00 0.00 0.00 63 1015.2
20260831191410 33 139 3.2 4.8 0.00 0.00 0.00 63 1015.8
20260831190906 32 124 3.2 4.8 0.00 0.00 0.00 64 1015.7
20260831190406 32 154 4.8 4.8 0.00 0.00 0.00 67 1015.7
20260831185905 32 131 3.2 3.2 0.00 0.00 0.00 65 1015.8
20260831185401 32 97 3.2 3.2 0.00 0.00 0.00 65 1015.8
20260831184900 32 129 8.0 9.7 0.00 0.00 0.00 69 1015.9
20260831184355 32 122 0.0 0.0 0.00 0.00 0.00 68 1016.0
20260831183850 32 130 3.2 3.2 0.00 0.00 0.00 69 1015.8
20260831183350 31 110 3.2 3.2 0.00 0.00 0.00 69 1015.9
20260831182849 32 133 4.8 8.0 0.00 0.00 0.00 72 1016.2
20260831182345 31 112 6.4 8.0 0.00 0.00 0.00 69 1016.1
20260831181840 32 119 1.6 1.6 0.00 0.00 0.00 69 1016.3
20260831181335 31 136 1.6 1.6 0.00 0.00 0.00 74 1016.4
20260831180830 31 132 3.2 4.8 0.00 0.00 0.00 68 1016.3
20260831180325 31 125 3.2 3.2 0.00 0.00 0.00 71 1016.4
20260831175824 31 128 1.6 1.6 0.00 0.00 0.00 74 1016.2
20260831175320 31 140 6.4 8.0 0.00 0.00 0.00 75 1016.5
20260831174816 30 121 4.8 4.8 0.00 0.00 0.00 74 1016.5
20260831174312 30 124 4.8 4.8 0.00 0.00 0.00 75 1016.6
20260831173811 30 155 6.4 8.0 0.00 0.00 0.00 77 1016.6
20260831173305 30 101 3.2 3.2 0.00 0.00 0.00 78 1016.5
20260831172800 30 152 8.0 9.7 0.00 0.00 0.00 78 1016.9
20260831172255 30 141 4.8 4.8 0.00 0.00 0.00 76 1016.7
20260831171755 30 134 3.2 3.2 0.00 0.00 0.00 80 1016.8
20260831171253 30 147 4.8 4.8 0.00 0.00 0.00 81 1016.8
20260831170749 29 133 4.8 4.8 0.00 0.00 0.00 80 1016.8
20260831170245 29 134 3.2 3.2 0.00 0.00 0.00 82 1016.9
20260831165741 30 124 3.2 3.2 0.00 0.00 0.00 78 1016.7
20260831165237 29 113 1.6 3.2 0.00 0.00 0.00 80 1017.0
20260831164733 29 131 3.2 3.2 0.00 0.00 0.00 81 1016.9
20260831164229 28 126 0.0 1.6 0.00 0.00 0.00 87 1016.9
20260831163724 28 114 0.0 0.0 0.00 0.00 0.00 88 1017.1
20260831163220 28 125 3.2 3.2 0.00 0.00 0.00 84 1016.9
20260831162718 28 131 6.4 8.0 0.00 0.00 0.00 84 1017.0
20260831162217 27 127 1.6 1.6 0.00 0.00 0.00 89 1017.2
20260831161712 27 118 4.8 4.8 0.00 0.00 0.00 88 1017.0
20260831161209 27 138 1.6 3.2 0.00 0.00 0.00 89 1016.9
20260831160708 27 125 4.8 4.8 0.00 0.00 0.00 87 1016.9
20260831160204 27 126 0.0 1.6 0.00 0.00 0.00 92 1016.9
20260831155703 26 125 4.8 4.8 0.00 0.00 0.00 87 1017.0
20260831155159 26 119 4.8 4.8 0.00 0.00 0.00 91 1017.1
20260831154655 26 116 4.8 4.8 0.00 0.00 0.00 92 1017.3
20260831154150 26 125 1.6 3.2 0.00 0.00 0.00 93 1017.0
20260831153649 25 111 1.6 3.2 0.00 0.00 0.00 94 1017.0
20260831153145 25 106 6.4 8.0 0.00 0.00 0.00 93 1017.0
20260831152640 25 123 3.2 3.2 0.00 0.00 0.00 95 1017.2
20260831152137 25 119 3.2 4.8 0.00 0.00 0.00 97 1017.0
20260831151636 24 129 1.6 1.6 0.00 0.00 0.00 99 1017.2
20260831151131 24 117 1.6 1.6 0.00 0.00 0.00 99 1017.2
20260831150626 23 119 1.6 3.2 0.00 0.00 0.00 99 1017.2